Vertical_Velocity
1 -0 0 1 3 4 6 -0 -0 -1 -1 -1 1 -0 -1 0 1 -0 0 0 -2 -1 -2 1 1 1 -3 4 1 1 0 1 2 1 0 -1 2 -1 -1 -4 -4 0 -1 -2
-0 1 0 -1 1 1 -0 2 1 0 -1 -1 -0 -0 -1 -1 -1 -0 -0 -1 0 0 2 2 1 0 1 7 1 3 -1 -2 -0 1 1 0 3 -1 -2 -3 -2 -1 -2 -3
2 -2 1 -0 1 1 0 -0 -0 -1 0 -0 -2 -3 -2 -2 -2 -1 -1 -1 1 -2 -0 4 0 7 7 5 4 -2 -2 -0 1 1 1 -0 -2 1 -4 -2 -1 -0 -1 -3
-0 -2 -3 -1 1 1 1 3 0 -0 -1 1 1 -1 -2 -2 -3 -2 -1 3 6 4 5 1 4 8 5 5 0 -1 -1 2 0 1 0 0 -1 -2 -1 -1 0 -0 -1 -3
-1 0 -1 1 1 -2 -3 -1 -1 -1 -1 -2 -1 -3 1 -0 -2 -2 -3 -3 -2 1 1 2 4 3 2 -2 3 -0 -0 2 -0 1 1 0 0 -4 -0 -3 -3 -2 0 -1
-0 -1 -2 -0 -4 -2 -1 -1 -0 -0 -0 -2 -1 -2 1 0 1 -2 -4 -1 -2 -4 3 9 4 3 3 -0 -2 -2 2 1 0 -1 1 1 0 -2 0 1 2 -2 -0 -1
0 0 3 1 -2 1 -1 -0 -1 -2 -2 -3 -1 -2 -2 -1 -2 -2 0 -1 1 1 2 1 -0 0 2 -1 -0 3 0 -0 -1 0 -2 1 -1 -1 -1 -1 0 2 1 -1
-0 1 1 -3 -2 -2 -2 -2 -1 -2 -3 -3 -4 -5 -3 -2 -3 -1 -1 -3 -2 -2 -1 -0 3 1 -1 -1 2 1 2 1 -1 -1 0 1 -1 -0 -2 -3 -5 -3 -2 -2
0 0 -3 -4 0 -2 -1 -1 -1 1 1 -3 -5 -4 -3 -2 -3 -4 -1 -2 0 2 0 1 -0 -0 -1 -1 3 -1 -1 -0 -0 0 0 0 -1 -0 -1 -3 -5 -3 -2 -2
-0 -3 -2 -0 0 -0 1 4 1 -1 -2 -3 -3 -3 -3 -3 -2 -4 -2 2 1 -2 -3 -1 0 -1 -0 -1 2 1 -0 0 0 -0 -0 -0 -2 -1 -1 -0 -2 -3 -6 -4
1 2 -0 0 -1 -2 -1 -1 0 0 -1 -2 -2 -1 -1 -3 -2 -0 3 0 -1 -3 -1 -1 -1 -1 -3 1 1 1 2 2 0 -0 -0 -0 -1 1 1 1 1 0 -1 1
0 -0 -2 1 -1 -0 0 -0 1 1 1 -0 -2 -1 -1 1 0 0 -0 -3 -2 -1 -3 -2 -1 -0 1 -0 1 -0 -0 2 2 2 1 -1 -1 1 0 -0 2 -0 -2 -1
0 -4 -3 0 -4 -2 0 1 -0 -1 -2 -2 0 -1 1 -0 -2 -2 -1 2 0 -2 0 -0 -1 0 1 1 1 1 1 1 1 1 -1 -2 0 0 -1 -0 2 1 -0 -2
-4 -3 0 -1 -0 -1 -0 2 0 -0 -2 -2 -1 -0 -1 -2 -2 -1 -1 -3 -2 0 0 -1 0 -1 0 1 1 2 1 1 2 2 -1 -2 -1 -1 -0 -0 1 0 1 -1
-3 -1 1 -1 -1 0 -0 -1 -1 -2 -2 -2 -2 -2 -2 -2 -2 -2 -3 -1 -1 -1 -1 0 -1 -1 -2 -0 1 1 1 1 2 2 0 -1 -0 0 1 2 3 2 3 0
-3 2 0 2 0 1 -0 -1 -1 -2 -2 -1 -2 -0 0 -2 -1 -0 1 -1 -1 -1 -1 -2 -0 -1 -1 -0 1 0 -0 0 1 1 1 -1 -1 -0 1 2 1 1 1 0
1 0 0 1 3 -0 -2 -2 -1 -0 -1 -1 -1 -1 -2 -3 -1 1 -0 -2 -1 -1 -2 -3 -1 -2 -1 -1 -0 0 0 0 1 2 1 -1 -1 -1 1 2 1 1 0 -0
1 1 1 1 0 0 -1 -2 -1 -2 -4 -2 -2 -3 -2 -1 1 0 -2 -2 -1 -1 -1 -2 -3 -1 -2 -1 -0 -0 -0 1 1 2 1 -1 -1 -1 1 1 1 2 1 1
1 0 1 1 1 0 -2 -3 -4 -4 -3 -2 -3 -2 -1 -0 1 -0 -1 -1 -1 -0 -1 -2 -3 -3 -0 1 0 0 -0 0 1 1 1 -0 -1 -0 0 1 1 2 1 2
0 1 1 1 2 -1 -2 -2 -3 -2 -1 -2 -1 -1 -0 -0 0 -0 -1 -1 -1 0 -1 -2 -1 -3 -3 -0 1 1 -0 -0 1 1 0 1 0 -0 0 1 0 1 2 2
-0 2 3 1 -2 -1 -1 -1 -2 -2 -1 -1 -1 -1 -0 -1 -0 -1 -1 -1 -1 -0 -3 -1 -2 -2 -2 -2 -1 -0 -0 -1 0 1 1 1 1 -0 0 1 0 0 1 1
2 2 1 -0 -1 -1 -2 -3 -2 -2 -1 -0 -1 -1 -0 -0 -0 -1 -1 -1 -1 -3 -3 -2 -1 -3 -2 -1 -1 -0 0 0 0 0 1 1 1 0 0 1 1 0 0 0
1 1 1 -1 -2 -2 -2 -2 -1 -2 -1 -0 0 -1 -1 -1 -1 -2 -2 -2 -3 -3 -2 -1 -0 -2 -4 -2 -1 -1 -0 0 1 0 -0 1 1 0 -0 0 1 1 0 0
-1 -1 -2 -2 -1 -2 -1 -1 -3 -1 -1 0 1 -2 -1 -1 -3 -2 -2 -2 -1 -1 -1 -2 -1 -1 -2 -3 -3 -1 -1 -1 0 1 0 -1 -0 1 -0 -1 1 1 1 0
-1 -1 -2 -2 -1 -1 -2 -1 -2 -1 -1 1 -1 -0 -0 -2 -3 -3 -2 -2 -2 -1 -0 -1 -1 -0 -0 -1 -1 -2 -0 -0 -0 0 1 0 -1 -1 0 -0 -1 1 1 1
-2 -2 -1 -0 -2 -3 -2 -1 -1 -1 -1 -0 -1 -1 -2 -2 -2 -2 -0 -1 -2 -1 -0 1 1 2 2 1 0 -0 -1 -0 0 -0 0 1 1 1 0 1 1 -0 1 1
-2 -1 1 0 -2 -2 -1 -1 -1 -1 -1 -2 -0 -0 -2 -3 -2 -1 -1 0 -0 -1 -0 1 2 2 2 2 2 2 2 0 0 0 -0 -0 -0 -0 0 1 1 1 0 0
Height
5788 5787 5786 5785 5784 5782 5781 5779 5776 5773 5769 5766 5762 5756 5751 5744 5738 5733 5727 5721 5715 5710 5703 5697 5690 5682 5675 5667 5659 5651 5642 5632 5622 5612 5603 5593 5583 5574 5565 5555 5544 5531 5519 5507
5784 5783 5782 5782 5780 5778 5776 5774 5771 5769 5765 5762 5757 5751 5745 5738 5731 5725 5719 5713 5708 5703 5696 5688 5682 5675 5668 5660 5652 5643 5634 5625 5616 5607 5597 5587 5580 5571 5562 5552 5541 5528 5517 5505
5782 5780 5779 5779 5776 5775 5773 5771 5768 5765 5762 5756 5751 5744 5738 5732 5725 5719 5712 5707 5701 5695 5690 5683 5675 5668 5662 5653 5643 5635 5627 5619 5610 5602 5592 5584 5576 5568 5559 5549 5539 5527 5515 5504
5779 5777 5777 5775 5773 5772 5770 5767 5764 5760 5756 5751 5745 5739 5731 5724 5718 5712 5707 5701 5695 5689 5683 5676 5670 5663 5655 5646 5636 5628 5621 5612 5604 5597 5588 5581 5574 5565 5557 5547 5536 5525 5513 5503
5776 5774 5773 5772 5770 5768 5766 5763 5759 5756 5751 5746 5739 5732 5726 5719 5713 5708 5701 5695 5688 5682 5676 5669 5662 5655 5647 5638 5630 5621 5614 5607 5599 5592 5585 5579 5572 5563 5554 5546 5535 5524 5513 5504
5772 5771 5769 5767 5764 5762 5760 5758 5754 5750 5746 5740 5734 5727 5720 5713 5707 5701 5694 5688 5683 5676 5670 5663 5657 5649 5639 5631 5624 5616 5608 5602 5595 5588 5581 5576 5569 5562 5554 5546 5536 5524 5513 5504
5768 5768 5766 5763 5760 5758 5756 5755 5748 5744 5739 5734 5728 5721 5714 5709 5702 5695 5689 5683 5677 5672 5666 5658 5651 5642 5633 5626 5618 5610 5603 5599 5592 5586 5579 5574 5567 5560 5552 5545 5535 5525 5514 5505
5765 5764 5763 5760 5758 5756 5752 5747 5743 5739 5734 5728 5721 5715 5709 5704 5698 5692 5686 5679 5674 5667 5660 5652 5644 5636 5628 5621 5612 5606 5600 5595 5590 5583 5577 5571 5564 5558 5551 5543 5534 5524 5514 5505
5761 5760 5758 5756 5753 5750 5747 5744 5739 5735 5730 5724 5718 5712 5706 5700 5694 5688 5681 5675 5668 5661 5653 5645 5638 5631 5624 5617 5610 5603 5596 5592 5586 5580 5574 5568 5562 5556 5550 5543 5534 5525 5514 5506
5758 5756 5753 5751 5749 5746 5743 5739 5735 5731 5725 5719 5713 5707 5702 5696 5690 5683 5676 5670 5663 5656 5648 5641 5633 5626 5619 5612 5606 5600 5594 5589 5584 5578 5572 5566 5561 5555 5549 5543 5535 5526 5516 5507
5753 5751 5749 5747 5744 5741 5738 5733 5729 5724 5719 5713 5709 5704 5698 5691 5685 5679 5673 5666 5658 5651 5643 5635 5628 5622 5615 5609 5603 5596 5591 5586 5581 5575 5570 5566 5560 5555 5549 5543 5537 5529 5520 5511
5748 5746 5744 5742 5738 5735 5731 5727 5723 5719 5714 5709 5704 5699 5692 5686 5680 5675 5668 5660 5653 5645 5638 5631 5625 5618 5612 5605 5599 5593 5588 5583 5578 5574 5569 5565 5560 5555 5549 5543 5538 5531 5522 5514
5743 5741 5739 5736 5733 5730 5726 5722 5718 5713 5708 5703 5698 5693 5688 5682 5676 5669 5662 5655 5647 5641 5635 5628 5621 5614 5607 5601 5595 5590 5585 5580 5576 5572 5568 5564 5560 5555 5549 5544 5538 5532 5525 5517
5736 5735 5733 5730 5727 5724 5721 5717 5713 5708 5703 5698 5692 5688 5682 5676 5670 5664 5657 5650 5644 5638 5632 5624 5617 5610 5603 5597 5592 5587 5582 5578 5575 5571 5567 5564 5560 5555 5550 5545 5539 5534 5527 5520
5730 5729 5727 5724 5722 5719 5716 5712 5707 5702 5697 5691 5686 5682 5677 5671 5665 5659 5652 5647 5641 5635 5628 5621 5614 5606 5599 5593 5588 5583 5579 5575 5573 5569 5566 5563 5559 5555 5550 5546 5541 5536 5530 5523
5723 5723 5720 5718 5716 5714 5710 5706 5701 5696 5691 5686 5682 5677 5672 5667 5660 5654 5650 5644 5638 5632 5625 5618 5611 5603 5596 5590 5585 5580 5576 5574 5571 5568 5565 5562 5559 5555 5551 5547 5542 5537 5531 5526
5717 5716 5714 5713 5711 5708 5705 5700 5696 5691 5686 5682 5677 5672 5667 5662 5656 5652 5646 5641 5635 5629 5622 5616 5608 5601 5594 5587 5582 5577 5574 5572 5569 5566 5564 5561 5558 5555 5551 5547 5543 5538 5533 5528
5711 5710 5708 5707 5705 5702 5698 5694 5690 5685 5681 5676 5672 5667 5663 5658 5653 5648 5643 5638 5632 5626 5620 5613 5606 5599 5591 5584 5579 5575 5572 5570 5567 5565 5563 5561 5558 5555 5552 5548 5545 5540 5536 5531
5704 5703 5702 5701 5699 5696 5693 5689 5684 5679 5675 5671 5667 5663 5658 5654 5650 5645 5641 5636 5630 5623 5617 5610 5603 5596 5589 5582 5576 5573 5570 5568 5566 5564 5562 5560 5558 5555 5553 5549 5546 5542 5538 5534
5698 5697 5697 5696 5693 5690 5687 5683 5679 5674 5670 5666 5662 5658 5655 5651 5646 5643 5638 5633 5627 5621 5614 5608 5601 5593 5587 5580 5574 5571 5568 5566 5564 5563 5561 5560 5557 5555 5553 5550 5547 5544 5540 5537
5692 5692 5691 5690 5688 5685 5681 5677 5673 5669 5665 5662 5658 5654 5651 5648 5644 5640 5636 5630 5624 5618 5612 5606 5599 5592 5584 5578 5572 5568 5566 5564 5563 5561 5560 5559 5557 5555 5553 5551 5548 5545 5542 5539
5686 5686 5685 5684 5682 5679 5675 5672 5668 5664 5661 5657 5654 5651 5649 5646 5642 5638 5633 5628 5622 5616 5610 5604 5597 5590 5584 5577 5571 5567 5564 5563 5561 5560 5558 5557 5556 5555 5553 5551 5548 5546 5543 5541
5681 5680 5679 5678 5675 5673 5670 5666 5663 5660 5656 5654 5651 5649 5646 5643 5639 5635 5631 5625 5619 5613 5607 5602 5596 5590 5583 5577 5571 5566 5563 5561 5560 5558 5557 5556 5554 5553 5552 5550 5548 5546 5544 5542
5674 5674 5673 5671 5669 5667 5664 5660 5658 5655 5653 5651 5649 5647 5644 5641 5637 5633 5628 5623 5617 5611 5605 5599 5594 5588 5583 5577 5571 5566 5562 5559 5558 5556 5555 5554 5552 5551 5550 5549 5547 5545 5544 5542
5668 5668 5667 5665 5663 5660 5657 5655 5653 5652 5651 5648 5647 5644 5641 5638 5635 5630 5625 5619 5614 5608 5602 5597 5591 5586 5581 5576 5571 5566 5561 5558 5555 5554 5553 5551 5550 5549 5547 5546 5545 5544 5542 5541
5662 5661 5660 5659 5657 5654 5652 5651 5650 5649 5647 5646 5644 5641 5639 5635 5631 5627 5622 5616 5611 5605 5600 5594 5588 5583 5578 5574 5570 5565 5560 5557 5553 5551 5550 5548 5547 5546 5545 5543 5542 5541 5540 5539
5655 5655 5654 5652 5650 5649 5648 5647 5646 5646 5644 5643 5641 5639 5636 5632 5628 5624 5619 5614 5608 5602 5596 5589 5584 5579 5574 5571 5567 5563 5559 5555 5552 5548 5546 5544 5543 5542 5541 5540 5539 5538 5537 5536